owner,sensor,date,latitude,longitude,vertical_datum,mass_concentration_of_oxygen_in_sea_water,qcFlag 
SCCF RECON,ioos:station:SCCF:53:1,2016-08-03T18:00:00Z,26.6493,-81.8810,2.54,5.93,1111122 
SCCF RECON,ioos:station:SCCF:53:1,2016-08-03T19:00:00Z,26.6493,-81.8810,2.591,6.19,1111122 
SCCF RECON,ioos:station:SCCF:53:1,2016-08-03T20:00:00Z,26.6493,-81.8810,2.63,6.05,1111122 
SCCF RECON,ioos:station:SCCF:53:1,2016-08-03T21:00:00Z,26.6493,-81.8810,2.62,6.04,1111122 
SCCF RECON,ioos:station:SCCF:53:1,2016-08-03T22:00:00Z,26.6493,-81.8810,2.56,6.02,1111122 
SCCF RECON,ioos:station:SCCF:53:1,2016-08-03T23:00:00Z,26.6493,-81.8810,2.492,6.39,1111122 
SCCF RECON,ioos:station:SCCF:53:1,2016-08-04T00:00:00Z,26.6493,-81.8810,2.43,6.21,1111122 
SCCF RECON,ioos:station:SCCF:53:1,2016-08-04T01:00:00Z,26.6493,-81.8810,2.37,6.1,1111122 
SCCF RECON,ioos:station:SCCF:53:1,2016-08-04T02:00:00Z,26.6493,-81.8810,2.31,6.35,1111122 
SCCF RECON,ioos:station:SCCF:53:1,2016-08-04T03:00:00Z,26.6493,-81.8810,2.25,6.29,1111122 
SCCF RECON,ioos:station:SCCF:53:1,2016-08-04T04:00:00Z,26.6493,-81.8810,2.2,6.2,1111122 
SCCF RECON,ioos:station:SCCF:53:1,2016-08-04T05:00:00Z,26.6493,-81.8810,2.19,6.07,1111122 
SCCF RECON,ioos:station:SCCF:53:1,2016-08-04T06:00:00Z,26.6493,-81.8810,2.23,6.05,1111122 
SCCF RECON,ioos:station:SCCF:53:1,2016-08-04T07:00:00Z,26.6493,-81.8810,2.29,5.95,1111122 
SCCF RECON,ioos:station:SCCF:53:1,2016-08-04T08:00:00Z,26.6493,-81.8810,2.34,5.95,1111122 
SCCF RECON,ioos:station:SCCF:53:1,2016-08-04T09:00:00Z,26.6493,-81.8810,2.4,6.05,1111122 
SCCF RECON,ioos:station:SCCF:53:1,2016-08-04T10:00:00Z,26.6493,-81.8810,2.42,6.04,1111122 
SCCF RECON,ioos:station:SCCF:53:1,2016-08-04T11:00:00Z,26.6493,-81.8810,2.401,6.04,1111122 
SCCF RECON,ioos:station:SCCF:53:1,2016-08-04T12:00:00Z,26.6493,-81.8810,2.364,5.94,1111122 
SCCF RECON,ioos:station:SCCF:53:1,2016-08-04T13:00:00Z,26.6493,-81.8810,2.322,6.07,1111122 
SCCF RECON,ioos:station:SCCF:53:1,2016-08-04T14:00:00Z,26.6493,-81.8810,2.28,5.88,1111122 
SCCF RECON,ioos:station:SCCF:53:1,2016-08-04T15:00:00Z,26.6493,-81.8810,2.249,5.91,1111122 
SCCF RECON,ioos:station:SCCF:53:1,2016-08-04T16:00:00Z,26.6493,-81.8810,2.274,5.86,1111122 
SCCF RECON,ioos:station:SCCF:53:1,2016-08-04T17:00:00Z,26.6493,-81.8810,2.365,5.92,1111122 
SCCF RECON,ioos:station:SCCF:53:1,2016-08-04T18:00:00Z,26.6493,-81.8810,2.43,6.13,1111122 
SCCF RECON,ioos:station:SCCF:53:1,2016-08-04T19:00:00Z,26.6493,-81.8810,2.5,6.22,1111122 
SCCF RECON,ioos:station:SCCF:53:1,2016-08-04T20:00:00Z,26.6493,-81.8810,2.567,6.37,1111122 
SCCF RECON,ioos:station:SCCF:53:1,2016-08-04T21:00:00Z,26.6493,-81.8810,2.613,6.27,1111122 
SCCF RECON,ioos:station:SCCF:53:1,2016-08-04T22:00:00Z,26.6493,-81.8810,2.61,6.26,1111122 
SCCF RECON,ioos:station:SCCF:53:1,2016-08-04T23:00:00Z,26.6493,-81.8810,2.55,6.57,1111122 
SCCF RECON,ioos:station:SCCF:53:1,2016-08-05T00:00:00Z,26.6493,-81.8810,2.479,6.77,1111122 
SCCF RECON,ioos:station:SCCF:53:1,2016-08-05T01:00:00Z,26.6493,-81.8810,2.41,6.49,1111122 
SCCF RECON,ioos:station:SCCF:53:1,2016-08-05T02:00:00Z,26.6493,-81.8810,2.351,6.35,1111122 
SCCF RECON,ioos:station:SCCF:53:1,2016-08-05T03:00:00Z,26.6493,-81.8810,2.3,6.26,1111122 
SCCF RECON,ioos:station:SCCF:53:1,2016-08-05T04:00:00Z,26.6493,-81.8810,2.24,6.24,1111122 
SCCF RECON,ioos:station:SCCF:53:1,2016-08-05T05:00:00Z,26.6493,-81.8810,2.21,5.85,1111122 
SCCF RECON,ioos:station:SCCF:53:1,2016-08-05T06:00:00Z,26.6493,-81.8810,2.24,5.84,1111122 
SCCF RECON,ioos:station:SCCF:53:1,2016-08-05T07:00:00Z,26.6493,-81.8810,2.3,5.9,1111122 
SCCF RECON,ioos:station:SCCF:53:1,2016-08-05T08:00:00Z,26.6493,-81.8810,2.36,6.15,1111122 
SCCF RECON,ioos:station:SCCF:53:1,2016-08-05T09:00:00Z,26.6493,-81.8810,2.42,6.22,1111122 
SCCF RECON,ioos:station:SCCF:53:1,2016-08-05T10:00:00Z,26.6493,-81.8810,2.47,6.13,1111122 
SCCF RECON,ioos:station:SCCF:53:1,2016-08-05T11:00:00Z,26.6493,-81.8810,2.47,6.24,1111122 
SCCF RECON,ioos:station:SCCF:53:1,2016-08-05T12:00:00Z,26.6493,-81.8810,2.425,6.11,1111122 
SCCF RECON,ioos:station:SCCF:53:1,2016-08-05T13:00:00Z,26.6493,-81.8810,2.374,6.04,1111122 
SCCF RECON,ioos:station:SCCF:53:1,2016-08-05T14:00:00Z,26.6493,-81.8810,2.337,5.86,1111122 
SCCF RECON,ioos:station:SCCF:53:1,2016-08-05T15:00:00Z,26.6493,-81.8810,2.3,5.85,1111122 
SCCF RECON,ioos:station:SCCF:53:1,2016-08-05T16:00:00Z,26.6493,-81.8810,2.271,5.86,1111122 
SCCF RECON,ioos:station:SCCF:53:1,2016-08-05T17:00:00Z,26.6493,-81.8810,2.319,5.86,1111122 
SCCF RECON,ioos:station:SCCF:53:1,2016-08-05T18:00:00Z,26.6493,-81.8810,2.397,5.94,1111122 
SCCF RECON,ioos:station:SCCF:53:1,2016-08-05T19:00:00Z,26.6493,-81.8810,2.45,6.19,1111122 
SCCF RECON,ioos:station:SCCF:53:1,2016-08-05T20:00:00Z,26.6493,-81.8810,2.512,6.63,1111122 
SCCF RECON,ioos:station:SCCF:53:1,2016-08-05T21:00:00Z,26.6493,-81.8810,2.566,6.62,1111122 
SCCF RECON,ioos:station:SCCF:53:1,2016-08-05T22:00:00Z,26.6493,-81.8810,2.599,6.69,1111122 
SCCF RECON,ioos:station:SCCF:53:1,2016-08-05T23:00:00Z,26.6493,-81.8810,2.56,6.89,1111122 
SCCF RECON,ioos:station:SCCF:53:1,2016-08-06T00:00:00Z,26.6493,-81.8810,2.491,6.91,1111122 
SCCF RECON,ioos:station:SCCF:53:1,2016-08-06T01:00:00Z,26.6493,-81.8810,2.436,6.49,1111122 
SCCF RECON,ioos:station:SCCF:53:1,2016-08-06T02:00:00Z,26.6493,-81.8810,2.371,6.28,1111122 
SCCF RECON,ioos:station:SCCF:53:1,2016-08-06T03:00:00Z,26.6493,-81.8810,2.315,6.22,1111122 
SCCF RECON,ioos:station:SCCF:53:1,2016-08-06T04:00:00Z,26.6493,-81.8810,2.26,5.93,1111122 
SCCF RECON,ioos:station:SCCF:53:1,2016-08-06T05:00:00Z,26.6493,-81.8810,2.21,5.98,1111122 
SCCF RECON,ioos:station:SCCF:53:1,2016-08-06T06:00:00Z,26.6493,-81.8810,2.21,5.88,1111122 
SCCF RECON,ioos:station:SCCF:53:1,2016-08-06T07:00:00Z,26.6493,-81.8810,2.25,5.85,1111122 
SCCF RECON,ioos:station:SCCF:53:1,2016-08-06T08:00:00Z,26.6493,-81.8810,2.3,5.85,1111122 
SCCF RECON,ioos:station:SCCF:53:1,2016-08-06T09:00:00Z,26.6493,-81.8810,2.36,5.82,1111122 
SCCF RECON,ioos:station:SCCF:53:1,2016-08-06T10:00:00Z,26.6493,-81.8810,2.41,6.02,1111122 
SCCF RECON,ioos:station:SCCF:53:1,2016-08-06T11:00:00Z,26.6493,-81.8810,2.412,6.03,1111122 
SCCF RECON,ioos:station:SCCF:53:1,2016-08-06T12:00:00Z,26.6493,-81.8810,2.39,5.95,1111122 
SCCF RECON,ioos:station:SCCF:53:1,2016-08-06T13:00:00Z,26.6493,-81.8810,2.35,5.82,1111122 
SCCF RECON,ioos:station:SCCF:53:1,2016-08-06T14:00:00Z,26.6493,-81.8810,2.309,5.81,1111122 
SCCF RECON,ioos:station:SCCF:53:1,2016-08-06T15:00:00Z,26.6493,-81.8810,2.264,5.77,1111122 
SCCF RECON,ioos:station:SCCF:53:1,2016-08-06T16:00:00Z,26.6493,-81.8810,2.222,5.79,1111122 
SCCF RECON,ioos:station:SCCF:53:1,2016-08-06T17:00:00Z,26.6493,-81.8810,2.216,5.89,1111122 
SCCF RECON,ioos:station:SCCF:53:1,2016-08-06T18:00:00Z,26.6493,-81.8810,2.26,5.89,1111122 
SCCF RECON,ioos:station:SCCF:53:1,2016-08-06T19:00:00Z,26.6493,-81.8810,2.329,6.08,1111122 
SCCF RECON,ioos:station:SCCF:53:1,2016-08-06T20:00:00Z,26.6493,-81.8810,2.394,6.16,1111122 
SCCF RECON,ioos:station:SCCF:53:1,2016-08-06T21:00:00Z,26.6493,-81.8810,2.466,6.23,1111122 
SCCF RECON,ioos:station:SCCF:53:1,2016-08-06T22:00:00Z,26.6493,-81.8810,2.517,6.44,1111122 
SCCF RECON,ioos:station:SCCF:53:1,2016-08-06T23:00:00Z,26.6493,-81.8810,2.53,6.5,1111122 
SCCF RECON,ioos:station:SCCF:53:1,2016-08-07T00:00:00Z,26.6493,-81.8810,2.498,6.54,1111122 
SCCF RECON,ioos:station:SCCF:53:1,2016-08-07T01:00:00Z,26.6493,-81.8810,2.43,6.28,1111122 
SCCF RECON,ioos:station:SCCF:53:1,2016-08-07T02:00:00Z,26.6493,-81.8810,2.38,6.19,1111122 
SCCF RECON,ioos:station:SCCF:53:1,2016-08-07T03:00:00Z,26.6493,-81.8810,2.329,6.0,1111122 
SCCF RECON,ioos:station:SCCF:53:1,2016-08-07T04:00:00Z,26.6493,-81.8810,2.27,6.0,1111122 
SCCF RECON,ioos:station:SCCF:53:1,2016-08-07T05:00:00Z,26.6493,-81.8810,2.23,5.9,1111122 
SCCF RECON,ioos:station:SCCF:53:1,2016-08-07T06:00:00Z,26.6493,-81.8810,2.2,5.74,1111122 
SCCF RECON,ioos:station:SCCF:53:1,2016-08-07T07:00:00Z,26.6493,-81.8810,2.24,5.84,1111122 
SCCF RECON,ioos:station:SCCF:53:1,2016-08-07T08:00:00Z,26.6493,-81.8810,2.301,5.79,1111122 
SCCF RECON,ioos:station:SCCF:53:1,2016-08-07T09:00:00Z,26.6493,-81.8810,2.35,5.85,1111122 
SCCF RECON,ioos:station:SCCF:53:1,2016-08-07T10:00:00Z,26.6493,-81.8810,2.42,5.86,1111122 
SCCF RECON,ioos:station:SCCF:53:1,2016-08-07T11:00:00Z,26.6493,-81.8810,2.48,5.88,1111122 
SCCF RECON,ioos:station:SCCF:53:1,2016-08-07T12:00:00Z,26.6493,-81.8810,2.502,5.92,1111122 
SCCF RECON,ioos:station:SCCF:53:1,2016-08-07T13:00:00Z,26.6493,-81.8810,2.47,5.95,1111122 
SCCF RECON,ioos:station:SCCF:53:1,2016-08-07T14:00:00Z,26.6493,-81.8810,2.41,5.99,1111122 
SCCF RECON,ioos:station:SCCF:53:1,2016-08-07T15:00:00Z,26.6493,-81.8810,2.36,5.82,1111122 
SCCF RECON,ioos:station:SCCF:53:1,2016-08-07T16:00:00Z,26.6493,-81.8810,2.311,5.78,1111122 
SCCF RECON,ioos:station:SCCF:53:1,2016-08-07T17:00:00Z,26.6493,-81.8810,2.271,5.75,1111122 
SCCF RECON,ioos:station:SCCF:53:1,2016-08-07T18:00:00Z,26.6493,-81.8810,2.252,5.79,1111122 
SCCF RECON,ioos:station:SCCF:53:1,2016-08-07T19:00:00Z,26.6493,-81.8810,2.286,5.67,1111122 
SCCF RECON,ioos:station:SCCF:53:1,2016-08-07T20:00:00Z,26.6493,-81.8810,2.36,5.9,1111122 
SCCF RECON,ioos:station:SCCF:53:1,2016-08-07T21:00:00Z,26.6493,-81.8810,2.41,5.99,1111122 
SCCF RECON,ioos:station:SCCF:53:1,2016-08-07T22:00:00Z,26.6493,-81.8810,2.486,6.07,1111122 
SCCF RECON,ioos:station:SCCF:53:1,2016-08-07T23:00:00Z,26.6493,-81.8810,2.5,6.08,1111122 
SCCF RECON,ioos:station:SCCF:53:1,2016-08-08T00:00:00Z,26.6493,-81.8810,2.48,6.14,1111122 
SCCF RECON,ioos:station:SCCF:53:1,2016-08-08T01:00:00Z,26.6493,-81.8810,2.44,6.12,1111122 
SCCF RECON,ioos:station:SCCF:53:1,2016-08-08T02:00:00Z,26.6493,-81.8810,2.39,6.06,1111122 
SCCF RECON,ioos:station:SCCF:53:1,2016-08-08T03:00:00Z,26.6493,-81.8810,2.33,6.02,1111122 
SCCF RECON,ioos:station:SCCF:53:1,2016-08-08T04:00:00Z,26.6493,-81.8810,2.27,5.86,1111122 
SCCF RECON,ioos:station:SCCF:53:1,2016-08-08T05:00:00Z,26.6493,-81.8810,2.23,5.77,1111122 
SCCF RECON,ioos:station:SCCF:53:1,2016-08-08T06:00:00Z,26.6493,-81.8810,2.19,5.61,1111122 
SCCF RECON,ioos:station:SCCF:53:1,2016-08-08T07:00:00Z,26.6493,-81.8810,2.198,5.68,1111122 
SCCF RECON,ioos:station:SCCF:53:1,2016-08-08T08:00:00Z,26.6493,-81.8810,2.25,5.7,1111122 
SCCF RECON,ioos:station:SCCF:53:1,2016-08-08T09:00:00Z,26.6493,-81.8810,2.31,5.61,1111122 
SCCF RECON,ioos:station:SCCF:53:1,2016-08-08T10:00:00Z,26.6493,-81.8810,2.37,5.65,1111122 
SCCF RECON,ioos:station:SCCF:53:1,2016-08-08T11:00:00Z,26.6493,-81.8810,2.43,5.8,1111122 
SCCF RECON,ioos:station:SCCF:53:1,2016-08-08T12:00:00Z,26.6493,-81.8810,2.46,5.86,1111122 
SCCF RECON,ioos:station:SCCF:53:1,2016-08-08T13:00:00Z,26.6493,-81.8810,2.471,5.86,1111122 
SCCF RECON,ioos:station:SCCF:53:1,2016-08-08T14:00:00Z,26.6493,-81.8810,2.462,5.83,1111122 
SCCF RECON,ioos:station:SCCF:53:1,2016-08-08T15:00:00Z,26.6493,-81.8810,2.39,5.9,1111122 
SCCF RECON,ioos:station:SCCF:53:1,2016-08-08T16:00:00Z,26.6493,-81.8810,2.343,5.78,1111122 
SCCF RECON,ioos:station:SCCF:53:1,2016-08-08T17:00:00Z,26.6493,-81.8810,2.3,5.69,1111122 
SCCF RECON,ioos:station:SCCF:53:1,2016-08-08T18:00:00Z,26.6493,-81.8810,2.26,5.64,1111122 
SCCF RECON,ioos:station:SCCF:53:1,2016-08-08T19:00:00Z,26.6493,-81.8810,2.22,5.72,1111122 
SCCF RECON,ioos:station:SCCF:53:1,2016-08-08T20:00:00Z,26.6493,-81.8810,2.238,5.63,1111122 
SCCF RECON,ioos:station:SCCF:53:1,2016-08-08T21:00:00Z,26.6493,-81.8810,2.282,5.59,1111122 
SCCF RECON,ioos:station:SCCF:53:1,2016-08-08T22:00:00Z,26.6493,-81.8810,2.33,5.7,1111122 
SCCF RECON,ioos:station:SCCF:53:1,2016-08-08T23:00:00Z,26.6493,-81.8810,2.36,5.78,1111122 
SCCF RECON,ioos:station:SCCF:53:1,2016-08-09T00:00:00Z,26.6493,-81.8810,2.39,5.9,1111122 
SCCF RECON,ioos:station:SCCF:53:1,2016-08-09T01:00:00Z,26.6493,-81.8810,2.38,5.78,1111122 
SCCF RECON,ioos:station:SCCF:53:1,2016-08-09T02:00:00Z,26.6493,-81.8810,2.34,5.77,1111122 
SCCF RECON,ioos:station:SCCF:53:1,2016-08-09T03:00:00Z,26.6493,-81.8810,2.3,5.75,1111122 
SCCF RECON,ioos:station:SCCF:53:1,2016-08-09T04:00:00Z,26.6493,-81.8810,2.256,5.73,1111122 
SCCF RECON,ioos:station:SCCF:53:1,2016-08-09T05:00:00Z,26.6493,-81.8810,2.21,5.61,1111122 
SCCF RECON,ioos:station:SCCF:53:1,2016-08-09T06:00:00Z,26.6493,-81.8810,2.18,5.49,1111122 
SCCF RECON,ioos:station:SCCF:53:1,2016-08-09T07:00:00Z,26.6493,-81.8810,2.17,5.48,1111122 
SCCF RECON,ioos:station:SCCF:53:1,2016-08-09T08:00:00Z,26.6493,-81.8810,2.21,5.47,1111122 
SCCF RECON,ioos:station:SCCF:53:1,2016-08-09T09:00:00Z,26.6493,-81.8810,2.27,5.54,1111122 
SCCF RECON,ioos:station:SCCF:53:1,2016-08-09T10:00:00Z,26.6493,-81.8810,2.34,5.67,1111122 
SCCF RECON,ioos:station:SCCF:53:1,2016-08-09T11:00:00Z,26.6493,-81.8810,2.41,5.75,1111122 
SCCF RECON,ioos:station:SCCF:53:1,2016-08-09T12:00:00Z,26.6493,-81.8810,2.478,5.77,1111122 
SCCF RECON,ioos:station:SCCF:53:1,2016-08-09T13:00:00Z,26.6493,-81.8810,2.51,5.82,1111122 
SCCF RECON,ioos:station:SCCF:53:1,2016-08-09T14:00:00Z,26.6493,-81.8810,2.514,5.88,1111122 
SCCF RECON,ioos:station:SCCF:53:1,2016-08-09T15:00:00Z,26.6493,-81.8810,2.47,5.94,1111122 
SCCF RECON,ioos:station:SCCF:53:1,2016-08-09T16:00:00Z,26.6493,-81.8810,2.42,5.76,1111122 
SCCF RECON,ioos:station:SCCF:53:1,2016-08-09T17:00:00Z,26.6493,-81.8810,2.367,5.7,1111122 
SCCF RECON,ioos:station:SCCF:53:1,2016-08-09T18:00:00Z,26.6493,-81.8810,2.321,5.72,1111122 
SCCF RECON,ioos:station:SCCF:53:1,2016-08-09T19:00:00Z,26.6493,-81.8810,2.28,5.88,1111122 
SCCF RECON,ioos:station:SCCF:53:1,2016-08-09T20:00:00Z,26.6493,-81.8810,2.255,5.76,1111122 
SCCF RECON,ioos:station:SCCF:53:1,2016-08-09T21:00:00Z,26.6493,-81.8810,2.277,5.71,1111122 
SCCF RECON,ioos:station:SCCF:53:1,2016-08-09T22:00:00Z,26.6493,-81.8810,2.324,5.79,1111122 
SCCF RECON,ioos:station:SCCF:53:1,2016-08-09T23:00:00Z,26.6493,-81.8810,2.373,5.82,1111122 
SCCF RECON,ioos:station:SCCF:53:1,2016-08-10T00:00:00Z,26.6493,-81.8810,2.437,5.84,1111122 
SCCF RECON,ioos:station:SCCF:53:1,2016-08-10T01:00:00Z,26.6493,-81.8810,2.44,5.83,1111122 
SCCF RECON,ioos:station:SCCF:53:1,2016-08-10T02:00:00Z,26.6493,-81.8810,2.41,5.85,1111122 
SCCF RECON,ioos:station:SCCF:53:1,2016-08-10T03:00:00Z,26.6493,-81.8810,2.36,5.78,1111122 
SCCF RECON,ioos:station:SCCF:53:1,2016-08-10T04:00:00Z,26.6493,-81.8810,2.31,6.08,1111122 
SCCF RECON,ioos:station:SCCF:53:1,2016-08-10T05:00:00Z,26.6493,-81.8810,2.27,5.61,1111122 
SCCF RECON,ioos:station:SCCF:53:1,2016-08-10T06:00:00Z,26.6493,-81.8810,2.23,5.5,1111122 
SCCF RECON,ioos:station:SCCF:53:1,2016-08-10T07:00:00Z,26.6493,-81.8810,2.21,5.57,1111122 
SCCF RECON,ioos:station:SCCF:53:1,2016-08-10T08:00:00Z,26.6493,-81.8810,2.25,5.58,1111122 
SCCF RECON,ioos:station:SCCF:53:1,2016-08-10T09:00:00Z,26.6493,-81.8810,2.29,5.54,1111122 
SCCF RECON,ioos:station:SCCF:53:1,2016-08-10T10:00:00Z,26.6493,-81.8810,2.251,5.55,1111122 
SCCF RECON,ioos:station:SCCF:53:1,2016-08-10T11:00:00Z,26.6493,-81.8810,2.36,5.54,1111122 
SCCF RECON,ioos:station:SCCF:53:1,2016-08-10T12:00:00Z,26.6493,-81.8810,2.43,5.66,1111122 
SCCF RECON,ioos:station:SCCF:53:1,2016-08-10T13:00:00Z,26.6493,-81.8810,2.47,5.97,1111122 
SCCF RECON,ioos:station:SCCF:53:1,2016-08-10T14:00:00Z,26.6493,-81.8810,2.51,5.88,1111122 
SCCF RECON,ioos:station:SCCF:53:1,2016-08-10T15:00:00Z,26.6493,-81.8810,2.48,5.91,1111122 
SCCF RECON,ioos:station:SCCF:53:1,2016-08-10T16:00:00Z,26.6493,-81.8810,2.428,5.83,1111122 
SCCF RECON,ioos:station:SCCF:53:1,2016-08-10T17:00:00Z,26.6493,-81.8810,2.373,5.64,1111122 
SCCF RECON,ioos:station:SCCF:53:1,2016-08-10T18:00:00Z,26.6493,-81.8810,2.313,5.6,1111122 
SCCF RECON,ioos:station:SCCF:53:1,2016-08-10T19:00:00Z,26.6493,-81.8810,2.26,5.56,1111122 
SCCF RECON,ioos:station:SCCF:53:1,2016-08-10T20:00:00Z,26.6493,-81.8810,2.211,5.5,1111122 
SCCF RECON,ioos:station:SCCF:53:1,2016-08-10T21:00:00Z,26.6493,-81.8810,2.181,5.4,1111122 
SCCF RECON,ioos:station:SCCF:53:1,2016-08-10T22:00:00Z,26.6493,-81.8810,2.18,5.82,1111122 
SCCF RECON,ioos:station:SCCF:53:1,2016-08-10T23:00:00Z,26.6493,-81.8810,2.2,5.48,1111122 
SCCF RECON,ioos:station:SCCF:53:1,2016-08-11T00:00:00Z,26.6493,-81.8810,2.252,5.59,1111122 
SCCF RECON,ioos:station:SCCF:53:1,2016-08-11T01:00:00Z,26.6493,-81.8810,2.32,5.88,1111122 
SCCF RECON,ioos:station:SCCF:53:1,2016-08-11T02:00:00Z,26.6493,-81.8810,2.36,5.85,1111122 
SCCF RECON,ioos:station:SCCF:53:1,2016-08-11T03:00:00Z,26.6493,-81.8810,2.34,5.94,1111122 
SCCF RECON,ioos:station:SCCF:53:1,2016-08-11T04:00:00Z,26.6493,-81.8810,2.28,5.9,1111122 
SCCF RECON,ioos:station:SCCF:53:1,2016-08-11T05:00:00Z,26.6493,-81.8810,2.24,5.81,1111122 
SCCF RECON,ioos:station:SCCF:53:1,2016-08-11T06:00:00Z,26.6493,-81.8810,2.2,5.64,1111122 
SCCF RECON,ioos:station:SCCF:53:1,2016-08-11T07:00:00Z,26.6493,-81.8810,2.16,5.45,1111122 
SCCF RECON,ioos:station:SCCF:53:1,2016-08-11T08:00:00Z,26.6493,-81.8810,2.15,5.44,1111122 
SCCF RECON,ioos:station:SCCF:53:1,2016-08-11T09:00:00Z,26.6493,-81.8810,2.16,5.46,1111122 
SCCF RECON,ioos:station:SCCF:53:1,2016-08-11T10:00:00Z,26.6493,-81.8810,2.18,5.45,1111122 
SCCF RECON,ioos:station:SCCF:53:1,2016-08-11T11:00:00Z,26.6493,-81.8810,2.24,5.45,1111122 
SCCF RECON,ioos:station:SCCF:53:1,2016-08-11T12:00:00Z,26.6493,-81.8810,2.29,5.57,1111122 
SCCF RECON,ioos:station:SCCF:53:1,2016-08-11T13:00:00Z,26.6493,-81.8810,2.33,5.59,1111122 
SCCF RECON,ioos:station:SCCF:53:1,2016-08-11T14:00:00Z,26.6493,-81.8810,2.359,5.77,1111122 
SCCF RECON,ioos:station:SCCF:53:1,2016-08-11T15:00:00Z,26.6493,-81.8810,2.352,5.82,1111122 
SCCF RECON,ioos:station:SCCF:53:1,2016-08-11T16:00:00Z,26.6493,-81.8810,2.311,5.66,1111122 
SCCF RECON,ioos:station:SCCF:53:1,2016-08-11T17:00:00Z,26.6493,-81.8810,2.257,5.36,1111122 
SCCF RECON,ioos:station:SCCF:53:1,2016-08-11T18:00:00Z,26.6493,-81.8810,2.2,5.41,1111122 
SCCF RECON,ioos:station:SCCF:53:1,2016-08-11T19:00:00Z,26.6493,-81.8810,2.15,5.4,1111122 
SCCF RECON,ioos:station:SCCF:53:1,2016-08-11T20:00:00Z,26.6493,-81.8810,2.116,5.35,1111122 
SCCF RECON,ioos:station:SCCF:53:1,2016-08-11T21:00:00Z,26.6493,-81.8810,2.081,5.45,1111122 
SCCF RECON,ioos:station:SCCF:53:1,2016-08-11T22:00:00Z,26.6493,-81.8810,2.062,5.57,1111122 
SCCF RECON,ioos:station:SCCF:53:1,2016-08-11T23:00:00Z,26.6493,-81.8810,2.064,5.45,1111122 
SCCF RECON,ioos:station:SCCF:53:1,2016-08-12T00:00:00Z,26.6493,-81.8810,2.11,5.57,1111122 
SCCF RECON,ioos:station:SCCF:53:1,2016-08-12T01:00:00Z,26.6493,-81.8810,2.17,5.78,1111122 
SCCF RECON,ioos:station:SCCF:53:1,2016-08-12T02:00:00Z,26.6493,-81.8810,2.23,5.85,1111122 
SCCF RECON,ioos:station:SCCF:53:1,2016-08-12T03:00:00Z,26.6493,-81.8810,2.29,5.85,1111122 
SCCF RECON,ioos:station:SCCF:53:1,2016-08-12T04:00:00Z,26.6493,-81.8810,2.326,5.83,1111122 
SCCF RECON,ioos:station:SCCF:53:1,2016-08-12T05:00:00Z,26.6493,-81.8810,2.321,5.85,1111122 
SCCF RECON,ioos:station:SCCF:53:1,2016-08-12T06:00:00Z,26.6493,-81.8810,2.29,5.86,1111122 
SCCF RECON,ioos:station:SCCF:53:1,2016-08-12T07:00:00Z,26.6493,-81.8810,2.24,6.03,1111122 
SCCF RECON,ioos:station:SCCF:53:1,2016-08-12T08:00:00Z,26.6493,-81.8810,2.19,5.97,1111122 
SCCF RECON,ioos:station:SCCF:53:1,2016-08-12T09:00:00Z,26.6493,-81.8810,2.17,5.67,1111122 
SCCF RECON,ioos:station:SCCF:53:1,2016-08-12T10:00:00Z,26.6493,-81.8810,2.17,5.45,1111122 
SCCF RECON,ioos:station:SCCF:53:1,2016-08-12T11:00:00Z,26.6493,-81.8810,2.2,5.47,1111122 
SCCF RECON,ioos:station:SCCF:53:1,2016-08-12T12:00:00Z,26.6493,-81.8810,2.26,5.77,1111122 
SCCF RECON,ioos:station:SCCF:53:1,2016-08-12T13:00:00Z,26.6493,-81.8810,2.32,5.99,1111122 
SCCF RECON,ioos:station:SCCF:53:1,2016-08-12T14:00:00Z,26.6493,-81.8810,2.366,5.79,1111122 
SCCF RECON,ioos:station:SCCF:53:1,2016-08-12T15:00:00Z,26.6493,-81.8810,2.38,5.78,1111122 
SCCF RECON,ioos:station:SCCF:53:1,2016-08-12T16:00:00Z,26.6493,-81.8810,2.35,5.88,1111122 
SCCF RECON,ioos:station:SCCF:53:1,2016-08-12T17:00:00Z,26.6493,-81.8810,2.324,5.93,1111122 
SCCF RECON,ioos:station:SCCF:53:1,2016-08-12T18:00:00Z,26.6493,-81.8810,2.272,5.95,1111122 
SCCF RECON,ioos:station:SCCF:53:1,2016-08-12T19:00:00Z,26.6493,-81.8810,2.21,5.73,1111122 
SCCF RECON,ioos:station:SCCF:53:1,2016-08-12T20:00:00Z,26.6493,-81.8810,2.185,5.83,1111122 
SCCF RECON,ioos:station:SCCF:53:1,2016-08-12T21:00:00Z,26.6493,-81.8810,2.151,5.79,1111122 
SCCF RECON,ioos:station:SCCF:53:1,2016-08-12T22:00:00Z,26.6493,-81.8810,2.1,5.74,1111122 
SCCF RECON,ioos:station:SCCF:53:1,2016-08-12T23:00:00Z,26.6493,-81.8810,2.08,5.69,1111122 
SCCF RECON,ioos:station:SCCF:53:1,2016-08-13T00:00:00Z,26.6493,-81.8810,2.07,5.71,1111122 
SCCF RECON,ioos:station:SCCF:53:1,2016-08-13T01:00:00Z,26.6493,-81.8810,2.1,5.66,1111122 
SCCF RECON,ioos:station:SCCF:53:1,2016-08-13T02:00:00Z,26.6493,-81.8810,2.151,5.69,1111122 
SCCF RECON,ioos:station:SCCF:53:1,2016-08-13T03:00:00Z,26.6493,-81.8810,2.2,5.85,1111122 
SCCF RECON,ioos:station:SCCF:53:1,2016-08-13T04:00:00Z,26.6493,-81.8810,2.24,5.87,1111122 
SCCF RECON,ioos:station:SCCF:53:1,2016-08-13T05:00:00Z,26.6493,-81.8810,2.28,5.91,1111122 
SCCF RECON,ioos:station:SCCF:53:1,2016-08-13T06:00:00Z,26.6493,-81.8810,2.3,5.86,1111122 
SCCF RECON,ioos:station:SCCF:53:1,2016-08-13T07:00:00Z,26.6493,-81.8810,2.29,5.91,1111122 
SCCF RECON,ioos:station:SCCF:53:1,2016-08-13T08:00:00Z,26.6493,-81.8810,2.25,5.87,1111122 
SCCF RECON,ioos:station:SCCF:53:1,2016-08-13T09:00:00Z,26.6493,-81.8810,2.22,5.85,1111122 
SCCF RECON,ioos:station:SCCF:53:1,2016-08-13T10:00:00Z,26.6493,-81.8810,2.199,5.7,1111122 
SCCF RECON,ioos:station:SCCF:53:1,2016-08-13T11:00:00Z,26.6493,-81.8810,2.2,5.63,1111122 
SCCF RECON,ioos:station:SCCF:53:1,2016-08-13T12:00:00Z,26.6493,-81.8810,2.25,5.68,1111122 
SCCF RECON,ioos:station:SCCF:53:1,2016-08-13T13:00:00Z,26.6493,-81.8810,2.32,5.82,1111122 
SCCF RECON,ioos:station:SCCF:53:1,2016-08-13T14:00:00Z,26.6493,-81.8810,2.38,5.94,1111122 
SCCF RECON,ioos:station:SCCF:53:1,2016-08-13T15:00:00Z,26.6493,-81.8810,2.43,6.08,1111122 
SCCF RECON,ioos:station:SCCF:53:1,2016-08-13T16:00:00Z,26.6493,-81.8810,2.45,6.06,1111122 
SCCF RECON,ioos:station:SCCF:53:1,2016-08-13T17:00:00Z,26.6493,-81.8810,2.449,6.11,1111122 
SCCF RECON,ioos:station:SCCF:53:1,2016-08-13T18:00:00Z,26.6493,-81.8810,2.417,6.18,1111122 
SCCF RECON,ioos:station:SCCF:53:1,2016-08-13T19:00:00Z,26.6493,-81.8810,2.345,6.1,1111122 
SCCF RECON,ioos:station:SCCF:53:1,2016-08-13T20:00:00Z,26.6493,-81.8810,2.291,5.78,1111122 
SCCF RECON,ioos:station:SCCF:53:1,2016-08-13T21:00:00Z,26.6493,-81.8810,2.235,5.79,1111122 
SCCF RECON,ioos:station:SCCF:53:1,2016-08-13T22:00:00Z,26.6493,-81.8810,2.18,5.69,1111122 
SCCF RECON,ioos:station:SCCF:53:1,2016-08-13T23:00:00Z,26.6493,-81.8810,2.136,5.61,1111122 
SCCF RECON,ioos:station:SCCF:53:1,2016-08-14T00:00:00Z,26.6493,-81.8810,2.103,5.78,1111122 
SCCF RECON,ioos:station:SCCF:53:1,2016-08-14T01:00:00Z,26.6493,-81.8810,2.091,5.63,1111122 
SCCF RECON,ioos:station:SCCF:53:1,2016-08-14T02:00:00Z,26.6493,-81.8810,2.13,5.52,1111122 
SCCF RECON,ioos:station:SCCF:53:1,2016-08-14T03:00:00Z,26.6493,-81.8810,2.19,5.53,1111122 
SCCF RECON,ioos:station:SCCF:53:1,2016-08-14T04:00:00Z,26.6493,-81.8810,2.23,5.83,1111122 
SCCF RECON,ioos:station:SCCF:53:1,2016-08-14T05:00:00Z,26.6493,-81.8810,2.28,5.79,1111122 
SCCF RECON,ioos:station:SCCF:53:1,2016-08-14T06:00:00Z,26.6493,-81.8810,2.31,5.72,1111122 
SCCF RECON,ioos:station:SCCF:53:1,2016-08-14T07:00:00Z,26.6493,-81.8810,2.31,5.72,1111122 
SCCF RECON,ioos:station:SCCF:53:1,2016-08-14T08:00:00Z,26.6493,-81.8810,2.29,5.71,1111122 
SCCF RECON,ioos:station:SCCF:53:1,2016-08-14T09:00:00Z,26.6493,-81.8810,2.26,5.69,1111122 
SCCF RECON,ioos:station:SCCF:53:1,2016-08-14T10:00:00Z,26.6493,-81.8810,2.24,5.55,1111122 
SCCF RECON,ioos:station:SCCF:53:1,2016-08-14T11:00:00Z,26.6493,-81.8810,2.29,5.63,1111122 
SCCF RECON,ioos:station:SCCF:53:1,2016-08-14T12:00:00Z,26.6493,-81.8810,2.24,5.55,1111122 
SCCF RECON,ioos:station:SCCF:53:1,2016-08-14T13:00:00Z,26.6493,-81.8810,2.269,5.51,1111122 
SCCF RECON,ioos:station:SCCF:53:1,2016-08-14T14:00:00Z,26.6493,-81.8810,2.32,5.55,1111122 
SCCF RECON,ioos:station:SCCF:53:1,2016-08-14T15:00:00Z,26.6493,-81.8810,2.387,5.8,1111122 